Regional Weather Roundup
Issued by NWS Boston, MA

Home | Current Version | Previous Version | Text Only | Print | Product List | Glossary On
Versions: 1 2 3 4 5 6 7 8 9 10 11 12 13 14 15 16 17 18 19 20 21 22 23 24 25 26 27 28 29 30 31 32 33 34 35 36 37 38 39 40 41 42 43 44 45 46 47 48 49 50
972
ASUS41 KBOX 211810
RWRBOX

REGIONAL WEATHER ROUNDUP
NATIONAL WEATHER SERVICE TAUNTON MA
100 PM EST SAT JAN 21 2017

NOTE:  "FAIR" INDICATES FEW OR NO CLOUDS BELOW 12,000 FEET WITH NO
SIGNIFICANT WEATHER AND/OR OBSTRUCTIONS TO VISIBILITY.

MAZALL-211900-
EASTERN MASSACHUSETTS

CITY           SKY/WX    TMP DP  RH WIND       PRES   REMARKS
BOSTON         MOSUNNY   49  41  74 SW13      29.75F
6HR MIN TEMP:  39; 6HR MAX TEMP:  50;

BEVERLY        MOSUNNY   50  41  71 VRB7      29.73F
LAWRENCE       MOSUNNY   47  40  76 W8        29.76F
BEDFORD        MOSUNNY   50  38  63 SW9       29.74F
BLUE HILL        N/A     47  40  76 W6        29.73F
NORWOOD        MOSUNNY   52  42  69 S6        29.75F
MARSHFIELD     MOSUNNY   50  41  71 VRB6G14   29.75F
PLYMOUTH       CLOUDY    48  40  73 SW8       29.76F
TAUNTON        CLOUDY    50  40  68 SW7       29.77F
NEW BEDFORD    CLOUDY    49  41  74 W5        29.77F
$$

MAZALL-211900-
CAPE COD AND THE ISLANDS

CITY           SKY/WX    TMP DP  RH WIND       PRES   REMARKS
FALMOUTH       CLOUDY    43  41  93 MISG      29.79F
HYANNIS        CLOUDY    46  41  82 SW12      29.76F
CHATHAM        CLOUDY    44  41  89 SW7G18    29.78F FOG
PROVINCETOWN   CLOUDY    45  41  86 SW13      29.77F
NANTUCKET      CLOUDY    45  41  86 W15       29.79F
MARTHAS VNYRD  CLOUDY    46  41  82 W10G20    29.79F
$$

MAZALL-211900-
CENTRAL AND WESTERN MASSACHUSETTS

CITY           SKY/WX    TMP DP  RH WIND       PRES   REMARKS
WORCESTER      SUNNY     47  41  80 W12G23    29.74F
6HR MIN TEMP:  35; 6HR MAX TEMP:  47;

FITCHBURG      SUNNY     54  42  64 W8        29.74F
ORANGE         MOSUNNY   46  41  82 SE6       29.76F
SPRINGFIELD    PTSUNNY   48  40  73 SW5       29.78S
WESTFIELD      PTSUNNY   50  41  71 S3        29.78F
NORTH ADAMS    CLOUDY    40  36  86 CALM      29.78F
PITTSFIELD     CLOUDY    44  42  93 CALM      29.76F FOG
$$

RIZALL-211900-
RHODE ISLAND

CITY           SKY/WX    TMP DP  RH WIND       PRES   REMARKS
PROVIDENCE     MOSUNNY   49  41  74 SW9       29.79F
6HR MIN TEMP:  41; 6HR MAX TEMP:  49;

NEWPORT        CLOUDY    45  42  89 VRB5      29.80F
SMITHFIELD     MOSUNNY   51  42  71 VRB7      29.77F
WESTERLY       CLOUDY    47  40  76 SW10      29.82F
$$

CTZALL-211900-
CONNECTICUT

CITY           SKY/WX    TMP DP  RH WIND       PRES   REMARKS
BRADLEY INTL   MOSUNNY   51  42  71 S7        29.79F
6HR MIN TEMP:  37; 6HR MAX TEMP:  51;

HARTFORD       SUNNY     50  43  77 S7        29.80F
BRIDGEPORT     CLOUDY    46  41  82 SW8       29.82F
DANBURY        CLOUDY    44  42  93 SW6       29.82F FOG
GROTON         CLOUDY    45  41  86 SW13      29.81F
NEW HAVEN      CLOUDY    45  41  86 SW9       29.82F FOG
CHESTER        PTSUNNY   46  45  93 VRB3      29.81F
MERIDEN        MOSUNNY   50  41  71 SE6       29.81F
WILLIMANTIC    MOSUNNY   51  43  74 VRB3      29.79F
OXFORD         MOSUNNY   48  41  76 NW7       29.82F
$$

MEZ002-015-021-024-NHZ003-005-008-011-012-014-VTZ005-008-211900-
NORTHERN NEW ENGLAND

CITY           SKY/WX    TMP DP  RH WIND       PRES   REMARKS
PORTLAND ME    CLOUDY    43  32  65 CALM      29.73F
6HR MIN TEMP:  36; 6HR MAX TEMP:  45;

BANGOR ME      CLOUDY    39  30  70 SW7       29.71F
CONCORD NH     CLOUDY    41  33  73 NE3       29.73F
MANCHESTER NH  NOT AVBL
NASHUA NH      NOT AVBL
PORTSMOUTH NH  PTSUNNY   45  36  71 CALM      29.72F
JAFFREY NH     NOT AVBL
KEENE NH       NOT AVBL
BURLINGTON VT  CLOUDY    43  38  82 SW7       29.72F
MT. WASHINGTON FOG       28  28 100 W26         N/A  VSB 1/16WCI  13
$$

NYZ052-076-211900-
EASTERN NEW YORK

CITY           SKY/WX    TMP DP  RH WIND       PRES   REMARKS
ALBANY         PTSUNNY   45  38  76 S6        29.80S
6HR MIN TEMP:  39; 6HR MAX TEMP:  45; 6HR PCP: TRACE;

NEW YORK CITY  PTSUNNY   48  42  80 NW7       29.83F
6HR MIN TEMP:  45; 6HR MAX TEMP:  49;

$$

ANZALL-211900-
MARINE OBSERVATIONS

STATION/POSITION TIME  TEMP    WIND        PRES    VSBY  WAVE
                       AIR SEA DIR/SP/G                  HT/PER
                 (UTC) (F)     (DEG/KT/KT) (MB)    (MI)  (FT/S)
BOSTON BUOY      1650   43 44  240/  8/ 10 1007.9          4/11
BUZZARDS BAY     1700   42     250/ 16/ 18 1009.8F
NANTUCKET SOUND  1650   42 43  240/ 12/ 14 1009.6          1/12
MASS BAY-STELLWA 1704   43 44  250/ 10/ 12 1007.9F  1 7/8
ISLE OF SHOALS   1700   41     240/  5/  6 1007.7F
S OF BLOCK IS    1755      47                N/A           4/12
$$

......................KEY.........................
  SKY/WX - SKY CONDITION/PRESENT WEATHER
  TMP    - TEMPERATURE IN FAHRENHEIT
  DWPT   - DEWPOINT IN FAHRENHEIT
  RH     - RELATIVE HUMIDITY IN PERCENT
  WIND   - DIRECTION AND SPEED IN MPH
  PRES   - MEAN SEA LEVEL PRESSURE IN INCHES OF HG
  WCI    - WIND CHILL INDEX
  VSB    - VISIBILITY IN MILES
  HX     - HEAT INDEX
  TC     - TEMPERATURE IN CELSIUS
  VRB    - VARIABLE WIND DIRECTION
  N/A    - NOT AVAILABLE




USA.gov is the U.S. government's official web portal to all federal, state and local government web resources and services.